TimeEST,TemperatureF,Dew PointF,Humidity,Sea Level PressureIn,VisibilityMPH,Wind Direction,Wind SpeedMPH,Gust SpeedMPH,PrecipitationIn,Events,Conditions,WindDirDegrees,DateUTC
12:51 AM,15.8,15.8,100,-9999,0.0,West,70.2,80.6,N/A,Fog-Snow,Snow,280,2013-01-10 05:51:00
1:47 AM,14.0,14.0,100,-9999,0.0,WNW,76.0,95.5,N/A,Fog-Snow,Light Snow,290,2013-01-10 06:47:00
2:47 AM,14.0,14.0,100,-9999,0.0,WNW,84.0,94.4,N/A,Fog-Snow,Light Snow,290,2013-01-10 07:47:00
3:55 AM,14.0,14.0,100,-9999,0.0,WNW,76.0,101.3,N/A,Fog-Snow,Light Snow,300,2013-01-10 08:55:00
4:51 AM,12.2,12.2,100,-9999,0.0,WNW,76.0,93.2,N/A,Fog-Snow,Light Snow,300,2013-01-10 09:51:00
5:49 AM,12.2,12.2,100,-9999,0.0,WNW,82.9,96.7,N/A,Fog-Snow,Light Snow,300,2013-01-10 10:49:00
6:57 AM,12.2,12.2,100,-9999,0.0,NW,72.5,99.0,N/A,Fog-Snow,Light Snow,310,2013-01-10 11:57:00
7:54 AM,12.2,12.2,100,-9999,0.0,WNW,76.0,88.6,N/A,Fog-Snow,Blowing Snow,300,2013-01-10 12:54:00
8:54 AM,12.2,12.2,100,-9999,0.0,WNW,77.1,97.8,N/A,Fog-Snow,Blowing Snow,300,2013-01-10 13:54:00
9:55 AM,12.2,12.2,100,-9999,0.0,WNW,66.7,81.7,N/A,Fog-Snow,Blowing Snow,300,2013-01-10 14:55:00
10:51 AM,12.2,12.2,100,-9999,0.0,WNW,69.0,80.6,N/A,Fog-Snow,Blowing Snow,300,2013-01-10 15:51:00
11:49 AM,12.2,12.2,100,-9999,0.0,WNW,65.6,72.5,N/A,Fog-Snow,Blowing Snow,300,2013-01-10 16:49:00
12:53 PM,12.2,12.2,100,-9999,0.0,WNW,66.7,76.0,N/A,Fog-Snow,Blowing Snow,300,2013-01-10 17:53:00
1:55 PM,12.2,12.2,100,-9999,0.0,WNW,76.0,81.7,N/A,Fog-Snow,Blowing Snow,300,2013-01-10 18:55:00
2:49 PM,12.2,12.2,100,-9999,0.0,NW,73.6,-,N/A,Fog-Snow,Blowing Snow,320,2013-01-10 19:49:00
3:54 PM,10.4,10.4,100,-9999,0.0,NW,79.4,84.0,N/A,Fog-Snow,Blowing Snow,310,2013-01-10 20:54:00
4:50 PM,10.4,10.4,100,-9999,0.0,NW,70.2,78.3,N/A,Fog-Snow,Blowing Snow,320,2013-01-10 21:50:00
5:50 PM,8.6,8.6,100,-9999,0.0,NW,70.2,80.6,N/A,Fog-Snow,Blowing Snow,320,2013-01-10 22:50:00
6:57 PM,12.2,5.0,73,-9999,130.0,NW,77.1,-,N/A,,Partly Cloudy,320,2013-01-10 23:57:00
7:55 PM,19.4,-4.0,36,-9999,130.0,NNW,77.1,-,N/A,,Partly Cloudy,330,2013-01-11 00:55:00
8:52 PM,21.2,-4.0,33,-9999,130.0,NNW,65.6,72.5,N/A,,Partly Cloudy,330,2013-01-11 01:52:00
9:52 PM,23.0,-0.4,36,-9999,130.0,NNW,57.5,-,N/A,,Partly Cloudy,330,2013-01-11 02:52:00
10:50 PM,21.2,-4.0,33,-9999,130.0,NNW,39.1,-,N/A,,Partly Cloudy,340,2013-01-11 03:50:00
11:54 PM,24.8,-5.8,26,-9999,120.0,NNW,34.5,-,N/A,,Partly Cloudy,330,2013-01-11 04:54:00